Home   Weather   Ibagué   Past weeks

Flag for Colombia Past Weather in Ibagué, Colombia — Yesterday and Last 2 Weeks

Now
72 °F

Scattered clouds.


Feels Like: 71 °F
Forecast: 59 / 69 °F
Wind: 2 mph from North

Location: Pereira / Matecana

Current Time: Apr 26, 2017 at 12:49:56 pm

Latest Report: Apr 26, 2017 at 12:00 pm


Visibility: N/A

Pressure: 30.11 "Hg (25.96 "Hg at 1281m altitude)

Humidity: 83%

Dew Point: 66 °F

Location of IbaguéLocation

Past Weather in Ibagué — Graph

°F

Ibagué Temperature Yesterday

Maximum temperature yesterday: 81 °F (at 2:00 pm)
Minimum temperature yesterday: 64 °F (at 6:00 am)
Average temperature yesterday: 71 °F

High & Low Weather Summary for the Past Weeks

 TemperatureHumidityPressure
High86 °F (Apr 13, 3:00 pm)100% (Apr 12, 6:00 am)30.17 "Hg (Apr 12, 6:00 am)
Low63 °F (Apr 15, 6:00 am)51% (Apr 13, 4:00 pm)29.88 "Hg (Apr 13, 3:00 pm)
Average72 °F82%30.04 "Hg
* Reported Apr 11 11:00 am — Apr 26 11:00 am, Ibagué, Weather by CustomWeather, © 2017

Note: Actual official high and low records may vary slightly from our data, if they occured in-between our weather recording intervals... More about our weather records

Advertising

Ibagué Weather History for the Previous 24 Hours

Scroll right to see more
 ConditionsComfort  
Time TempWeatherWind HumidityBarometerVisibility
11:00 am
Wed, Apr 26
70 °FFog.2 mph88%30.14 "Hg5 mi
10:00 am68 °FFog.3 mph94%30.15 "Hg4 mi
9:00 am66 °FBroken clouds.5 mph100%30.14 "Hg1 mi
8:00 am64 °FDrizzle. Broken clouds.2 mph100%30.12 "Hg1 mi
7:00 am64 °FBroken clouds.2 mph100%30.09 "Hg1 mi
6:00 am64 °FDrizzle. Broken clouds.2 mph100%30.09 "Hg3 mi
5:00 am64 °FPassing clouds.2 mph100%30.08 "Hg3 mi
12:00 am68 °FDrizzle. Fog.5 mph88%30.09 "Hg6 mi
11:00 pm
Tue, Apr 25
68 °FDrizzle. Fog.8 mph88%30.10 "Hg6 mi
10:00 pm68 °FDrizzle. Fog.8 mph94%30.09 "Hg6 mi
9:00 pm68 °FRain. Partly cloudy.8 mph94%30.06 "Hg4 mi
8:00 pm68 °FLight rain. Partly cloudy.5 mph94%30.03 "Hg5 mi
7:00 pm70 °FScattered showers. Passing clouds.8 mph88%30.00 "Hg6 mi
6:00 pm75 °FScattered showers. Scattered clouds.6 mph78%29.97 "Hg6 mi
5:00 pm75 °FScattered showers. Scattered clouds.9 mph74%29.95 "HgN/A
4:00 pm73 °FThunderstorms. Partly sunny.7 mph83%29.94 "Hg6 mi
3:00 pm77 °FThunderstorms. Scattered clouds.9 mph69%29.97 "Hg6 mi
2:00 pm81 °FScattered clouds.7 mph58%30.00 "HgN/A
1:00 pm79 °FScattered clouds.3 mph74%30.04 "HgN/A
12:00 pm75 °FBroken clouds.3 mph83%30.07 "Hg6 mi
Weather by CustomWeather, © 2017

See weather overviewHow to use our weather pages